Time,TemperatureF,DewpointF,PressureIn,WindDirection,WindDirectionDegrees,WindSpeedMPH,WindSpeedGustMPH,Humidity,HourlyPrecipIn,Conditions,Clouds,dailyrainin,SoftwareType,DateUTC
2013-08-16 00:00:00,65.0,63.0,29.98,ESE,117,0.0,0.0,92,0.00,,,0.06,,2013-08-16 07:00:00,
2013-08-16 00:11:00,65.0,63.0,29.98,ESE,117,0.0,0.0,92,0.00,,,0.06,,2013-08-16 07:11:00,
2013-08-16 00:21:00,64.0,62.0,29.98,ESE,117,0.0,0.0,92,0.00,,,0.06,,2013-08-16 07:21:00,
2013-08-16 00:42:00,64.0,62.0,29.98,ESE,117,0.0,0.0,92,0.00,,,0.06,,2013-08-16 07:42:00,
2013-08-16 00:52:00,64.0,62.0,29.98,ESE,117,0.0,0.0,93,0.00,,,0.06,,2013-08-16 07:52:00,
2013-08-16 01:11:00,64.0,62.0,29.98,ESE,117,0.0,0.0,93,0.00,,,0.06,,2013-08-16 08:11:00,
2013-08-16 01:21:00,64.0,62.0,29.98,ESE,117,0.0,0.0,93,0.00,,,0.06,,2013-08-16 08:21:00,
2013-08-16 01:41:00,64.0,62.0,29.98,ESE,117,0.0,0.0,93,0.00,,,0.06,,2013-08-16 08:41:00,
2013-08-16 01:52:00,64.0,62.0,29.97,ESE,117,0.0,0.0,94,0.00,,,0.06,,2013-08-16 08:52:00,
2013-08-16 02:11:00,64.0,62.0,29.97,ESE,117,0.0,0.0,94,0.00,,,0.06,,2013-08-16 09:11:00,
2013-08-16 02:21:00,64.0,62.0,29.97,ESE,117,0.0,0.0,94,0.00,,,0.06,,2013-08-16 09:21:00,
2013-08-16 02:53:00,64.0,62.0,29.98,ESE,117,0.0,2.0,94,0.00,,,0.06,,2013-08-16 09:53:00,
2013-08-16 03:13:00,64.0,62.0,29.97,ESE,117,0.0,2.0,94,0.00,,,0.06,,2013-08-16 10:13:00,
2013-08-16 03:23:00,64.0,62.0,29.97,ESE,117,0.0,1.0,94,0.00,,,0.06,,2013-08-16 10:23:00,
2013-08-16 03:52:00,64.0,63.0,29.98,ESE,117,0.0,0.0,95,0.00,,,0.06,,2013-08-16 10:52:00,
2013-08-16 04:12:00,64.0,63.0,29.98,ESE,117,0.0,0.0,95,0.00,,,0.06,,2013-08-16 11:12:00,
2013-08-16 04:21:00,64.0,63.0,29.98,ESE,117,0.0,0.0,95,0.00,,,0.06,,2013-08-16 11:21:00,
2013-08-16 04:42:00,64.0,63.0,29.98,ESE,117,0.0,0.0,95,0.00,,,0.06,,2013-08-16 11:42:00,
2013-08-16 04:52:00,64.0,63.0,29.98,ESE,117,0.0,0.0,95,0.00,,,0.06,,2013-08-16 11:52:00,
2013-08-16 05:12:00,64.0,63.0,29.97,ESE,117,0.0,0.0,95,0.00,,,0.06,,2013-08-16 12:12:00,
2013-08-16 05:21:00,64.0,63.0,29.97,ESE,117,0.0,0.0,95,0.00,,,0.06,,2013-08-16 12:21:00,
2013-08-16 05:52:00,63.0,62.0,29.98,ESE,117,0.0,1.0,95,0.00,,,0.06,,2013-08-16 12:52:00,
2013-08-16 06:11:00,63.0,62.0,29.98,ESE,117,0.0,0.0,95,0.00,,,0.06,,2013-08-16 13:11:00,
2013-08-16 06:21:00,63.0,62.0,29.98,ESE,117,0.0,0.0,95,0.00,,,0.06,,2013-08-16 13:21:00,
2013-08-16 06:42:00,63.0,62.0,29.98,ESE,117,0.0,1.0,95,0.00,,,0.06,,2013-08-16 13:42:00,
2013-08-16 06:53:00,64.0,63.0,29.99,ESE,117,0.0,1.0,95,0.00,,,0.06,,2013-08-16 13:53:00,
2013-08-16 07:11:00,64.0,63.0,29.99,ESE,117,0.0,0.0,95,0.00,,,0.06,,2013-08-16 14:11:00,
2013-08-16 07:21:00,64.0,63.0,29.99,ESE,117,0.0,0.0,95,0.00,,,0.06,,2013-08-16 14:21:00,
2013-08-16 07:41:00,64.0,63.0,29.99,ESE,117,1.0,2.0,95,0.00,,,0.06,,2013-08-16 14:41:00,
2013-08-16 07:52:00,65.0,64.0,30.00,ESE,117,2.0,3.0,95,0.00,,,0.06,,2013-08-16 14:52:00,
2013-08-16 08:12:00,65.0,64.0,30.00,ESE,117,0.0,2.0,95,0.00,,,0.06,,2013-08-16 15:12:00,
2013-08-16 08:22:00,65.0,64.0,30.00,ESE,117,0.0,2.0,95,0.00,,,0.06,,2013-08-16 15:22:00,
2013-08-16 08:43:00,66.0,65.0,30.01,ESE,117,1.0,2.0,95,0.00,,,0.06,,2013-08-16 15:43:00,
2013-08-16 08:56:00,66.0,64.0,30.00,ESE,117,0.0,3.0,94,0.00,,,0.06,,2013-08-16 15:56:00,
2013-08-16 09:13:00,67.0,65.0,29.99,ESE,117,1.0,3.0,94,0.00,,,0.06,,2013-08-16 16:13:00,
2013-08-16 09:23:00,67.0,65.0,30.00,ESE,117,0.0,2.0,92,0.00,,,0.06,,2013-08-16 16:23:00,
2013-08-16 09:57:00,71.0,65.0,30.00,ESE,117,0.0,5.0,81,0.00,,,0.06,,2013-08-16 16:57:00,
2013-08-16 10:12:00,71.0,65.0,29.99,NW,313,3.0,5.0,82,0.00,,,0.06,,2013-08-16 17:12:00,
2013-08-16 10:28:00,71.0,65.0,30.00,WNW,303,4.0,6.0,81,0.00,,,0.06,,2013-08-16 17:28:00,
2013-08-16 10:47:00,71.0,65.0,30.00,NW,310,2.0,6.0,81,0.00,,,0.06,,2013-08-16 17:47:00,
2013-08-16 11:00:00,71.0,65.0,30.00,NW,304,0.0,6.0,80,0.00,,,0.06,,2013-08-16 18:00:00,
2013-08-16 11:15:00,71.0,64.0,30.00,NW,304,1.0,7.0,79,0.00,,,0.03,,2013-08-16 18:15:00,
2013-08-16 11:27:00,73.0,65.0,30.00,West,273,1.0,5.0,77,0.00,,,0.03,,2013-08-16 18:27:00,
2013-08-16 11:50:00,-999.0,-99.9,30.00,West,273,1.0,5.0,77,0.00,,,0.03,,2013-08-16 18:50:00,